When you browse on this site, cookies collect data to enhance your experience and personalize the content and advertising you see.
Visit our Privacy Policy to learn more. By continuing to use the site, you agree to this use of cookies and data.
  • En España
  • Lista de países
  • Para 7 días
  • Temperatura del agua
  • El tiempo en el mapa
  • Informadores
  • user-avatar
    Iniciar sesión

    Tiempo cada hora Vlasova Sloboda

    Hoy, 6 Junio, Sábado

    Tiempo Temperatura Precipitaciones Viento Presión Humedad
    00:00 +10°C° 0 mm 3 mps 738 mmHg 92%
    01:00 +10°C° 0 mm 3 mps 738 mmHg 93%
    02:00 +11°C° 0 mm 4 mps 738 mmHg 94%
    03:00 +11°C° 0 mm 4 mps 738 mmHg 95%
    04:00 +12°C° 0 mm 4 mps 738 mmHg 95%
    05:00 +13°C° 0 mm 4 mps 738 mmHg 96%
    06:00 +14°C° 0 mm 4 mps 738 mmHg 93%
    07:00 +16°C° 0 mm 5 mps 738 mmHg 90%
    08:00 +17°C° 0 mm 5 mps 738 mmHg 87%
    09:00 +18°C° 0.3 mm 4 mps 738 mmHg 89%
    10:00 +18°C° 0.3 mm 4 mps 739 mmHg 91%
    11:00 +18°C° 0.3 mm 3 mps 739 mmHg 93%
    12:00 +19°C° 0.4 mm 4 mps 739 mmHg 91%
    13:00 +20°C° 0.4 mm 4 mps 739 mmHg 89%
    14:00 +20°C° 0.4 mm 5 mps 739 mmHg 88%
    15:00 +21°C° 0.2 mm 5 mps 740 mmHg 85%
    16:00 +21°C° 0.2 mm 4 mps 740 mmHg 83%
    17:00 +22°C° 0.2 mm 4 mps 740 mmHg 81%
    18:00 +20°C° 0.1 mm 3 mps 740 mmHg 84%
    19:00 +19°C° 0.1 mm 3 mps 741 mmHg 87%
    20:00 +18°C° 0.1 mm 2 mps 741 mmHg 90%
    21:00 +17°C° 0 mm 2 mps 742 mmHg 91%
    22:00 +16°C° 0 mm 2 mps 742 mmHg 92%
    23:00 +15°C° 0 mm 2 mps 743 mmHg 92%

    Mañana, 7 Junio, Domingo

    Tiempo Temperatura Precipitaciones Viento Presión Humedad
    00:00 +14°C° 0 mm 2 mps 743 mmHg 92%
    01:00 +13°C° 0 mm 1 mps 744 mmHg 91%
    02:00 +13°C° 0 mm 1 mps 744 mmHg 91%
    03:00 +13°C° 0 mm 1 mps 744 mmHg 90%
    04:00 +14°C° 0 mm 1 mps 745 mmHg 89%
    05:00 +13°C° 0 mm 0 mps 745 mmHg 88%
    06:00 +16°C° 0 mm 1 mps 745 mmHg 83%
    07:00 +19°C° 0 mm 1 mps 745 mmHg 78%
    08:00 +20°C° 0 mm 1 mps 746 mmHg 74%
    09:00 +20°C° 0 mm 2 mps 746 mmHg 70%
    10:00 +23°C° 0 mm 2 mps 746 mmHg 66%
    11:00 +24°C° 0 mm 2 mps 746 mmHg 62%
    12:00 +24°C° 0 mm 2 mps 746 mmHg 62%
    13:00 +25°C° 0 mm 2 mps 746 mmHg 61%
    14:00 +25°C° 0 mm 2 mps 746 mmHg 60%
    15:00 +25°C° 0 mm 2 mps 746 mmHg 64%
    16:00 +25°C° 0 mm 2 mps 746 mmHg 68%
    17:00 +25°C° 0 mm 2 mps 745 mmHg 72%
    18:00 +24°C° 0 mm 2 mps 745 mmHg 76%
    19:00 +21°C° 0 mm 3 mps 745 mmHg 81%
    20:00 +20°C° 0 mm 3 mps 745 mmHg 86%
    21:00 +19°C° 0.2 mm 3 mps 745 mmHg 88%
    22:00 +18°C° 0.2 mm 3 mps 745 mmHg 89%
    23:00 +18°C° 0.2 mm 3 mps 745 mmHg 91%

    Pasado mañana, 8 Junio, Lunes

    Tiempo Temperatura Precipitaciones Viento Presión Humedad
    00:00 +17°C° 0.4 mm 3 mps 745 mmHg 93%
    01:00 +17°C° 0.4 mm 3 mps 745 mmHg 94%
    02:00 +17°C° 0.4 mm 3 mps 745 mmHg 96%
    03:00 +18°C° 0 mm 3 mps 745 mmHg 96%
    04:00 +18°C° 0 mm 3 mps 745 mmHg 96%
    05:00 +18°C° 0 mm 3 mps 745 mmHg 96%
    06:00 +19°C° 0 mm 3 mps 745 mmHg 93%
    07:00 +21°C° 0 mm 3 mps 745 mmHg 89%
    08:00 +22°C° 0 mm 3 mps 746 mmHg 86%
    09:00 +24°C° 0.1 mm 3 mps 746 mmHg 82%
    10:00 +26°C° 0.1 mm 3 mps 746 mmHg 77%
    11:00 +27°C° 0.1 mm 3 mps 746 mmHg 72%
    12:00 +27°C° 0.1 mm 3 mps 746 mmHg 70%
    13:00 +27°C° 0.1 mm 3 mps 746 mmHg 69%
    14:00 +28°C° 0.1 mm 3 mps 745 mmHg 67%
    15:00 +27°C° 0.6 mm 3 mps 745 mmHg 71%
    16:00 +27°C° 0.6 mm 2 mps 745 mmHg 75%
    17:00 +27°C° 0.6 mm 2 mps 745 mmHg 79%
    18:00 +25°C° 0.3 mm 2 mps 745 mmHg 83%
    19:00 +24°C° 0.3 mm 2 mps 744 mmHg 87%
    20:00 +23°C° 0.3 mm 2 mps 744 mmHg 91%
    21:00 +21°C° 0 mm 2 mps 745 mmHg 92%
    22:00 +20°C° 0 mm 2 mps 745 mmHg 93%
    23:00 +19°C° 0 mm 2 mps 745 mmHg 94%

    9 Junio, Martes

    Tiempo Temperatura Precipitaciones Viento Presión Humedad
    00:00 +19°C° 0 mm 2 mps 745 mmHg 94%
    01:00 +19°C° 0 mm 2 mps 745 mmHg 94%
    02:00 +18°C° 0 mm 2 mps 745 mmHg 94%
    03:00 +18°C° 0 mm 2 mps 745 mmHg 95%
    04:00 +19°C° 0 mm 2 mps 745 mmHg 95%
    05:00 +19°C° 0 mm 2 mps 745 mmHg 95%
    06:00 +20°C° 0.3 mm 2 mps 745 mmHg 93%
    07:00 +23°C° 0.3 mm 2 mps 745 mmHg 90%
    08:00 +24°C° 0.3 mm 3 mps 745 mmHg 88%
    09:00 +25°C° 0.7 mm 3 mps 745 mmHg 86%
    10:00 +25°C° 0.7 mm 3 mps 745 mmHg 84%
    11:00 +26°C° 0.7 mm 4 mps 745 mmHg 82%
    12:00 +26°C° 0.4 mm 4 mps 745 mmHg 80%
    13:00 +27°C° 0.4 mm 3 mps 745 mmHg 78%
    14:00 +27°C° 0.4 mm 3 mps 745 mmHg 76%
    15:00 +27°C° 0.5 mm 3 mps 745 mmHg 78%
    16:00 +27°C° 0.5 mm 3 mps 745 mmHg 80%
    17:00 +26°C° 0.5 mm 3 mps 744 mmHg 81%
    18:00 +25°C° 0.4 mm 3 mps 744 mmHg 84%
    19:00 +24°C° 0.4 mm 3 mps 744 mmHg 87%
    20:00 +21°C° 0.4 mm 2 mps 744 mmHg 89%
    21:00 +20°C° 0 mm 2 mps 745 mmHg 91%
    22:00 +19°C° 0 mm 3 mps 745 mmHg 92%
    23:00 +19°C° 0 mm 3 mps 745 mmHg 94%

    10 Junio, Miércoles

    Tiempo Temperatura Precipitaciones Viento Presión Humedad
    00:00 +18°C° 0 mm 2 mps 745 mmHg 94%
    01:00 +18°C° 0 mm 2 mps 745 mmHg 95%
    02:00 +17°C° 0 mm 2 mps 745 mmHg 95%
    03:00 +18°C° 0 mm 2 mps 745 mmHg 95%
    04:00 +18°C° 0 mm 2 mps 745 mmHg 96%
    05:00 +18°C° 0 mm 2 mps 745 mmHg 96%
    06:00 +19°C° 0 mm 2 mps 745 mmHg 92%
    07:00 +21°C° 0 mm 2 mps 745 mmHg 88%
    08:00 +22°C° 0 mm 3 mps 745 mmHg 84%
    09:00 +24°C° 0 mm 3 mps 745 mmHg 80%
    10:00 +25°C° 0 mm 3 mps 745 mmHg 76%
    11:00 +26°C° 0 mm 3 mps 745 mmHg 73%
    12:00 +27°C° 0 mm 3 mps 744 mmHg 71%
    13:00 +27°C° 0 mm 3 mps 744 mmHg 69%
    14:00 +27°C° 0 mm 3 mps 744 mmHg 67%
    15:00 +27°C° 0 mm 3 mps 744 mmHg 69%
    16:00 +27°C° 0 mm 2 mps 743 mmHg 70%
    17:00 +27°C° 0 mm 2 mps 743 mmHg 72%
    18:00 +25°C° 0 mm 2 mps 743 mmHg 76%
    19:00 +24°C° 0 mm 1 mps 743 mmHg 80%
    20:00 +22°C° 0 mm 1 mps 743 mmHg 84%
    21:00 +21°C° 0 mm 1 mps 743 mmHg 86%
    22:00 +20°C° 0 mm 2 mps 743 mmHg 88%
    23:00 +19°C° 0 mm 2 mps 743 mmHg 90%

    11 Junio, Jueves

    Tiempo Temperatura Precipitaciones Viento Presión Humedad
    00:00 +19°C° 0 mm 2 mps 743 mmHg 91%
    01:00 +18°C° 0 mm 2 mps 743 mmHg 92%
    02:00 +18°C° 0 mm 2 mps 743 mmHg 93%
    03:00 +18°C° 0 mm 2 mps 742 mmHg 93%
    04:00 +19°C° 0 mm 2 mps 742 mmHg 94%
    05:00 +19°C° 0 mm 2 mps 742 mmHg 94%
    06:00 +20°C° 0 mm 2 mps 742 mmHg 89%
    07:00 +23°C° 0 mm 2 mps 742 mmHg 85%
    08:00 +24°C° 0 mm 2 mps 743 mmHg 81%
    09:00 +26°C° 0 mm 2 mps 742 mmHg 77%
    10:00 +27°C° 0 mm 2 mps 742 mmHg 73%
    11:00 +28°C° 0 mm 2 mps 742 mmHg 69%
    12:00 +28°C° 0.1 mm 2 mps 742 mmHg 68%
    13:00 +29°C° 0.1 mm 3 mps 742 mmHg 67%
    14:00 +29°C° 0.1 mm 3 mps 741 mmHg 66%
    15:00 +29°C° 0 mm 3 mps 741 mmHg 68%
    16:00 +29°C° 0 mm 2 mps 741 mmHg 71%
    17:00 +29°C° 0 mm 2 mps 741 mmHg 73%
    18:00 +27°C° 0 mm 2 mps 741 mmHg 77%
    19:00 +25°C° 0 mm 2 mps 741 mmHg 81%
    20:00 +24°C° 0 mm 2 mps 740 mmHg 85%
    21:00 +23°C° 0 mm 2 mps 740 mmHg 88%
    22:00 +21°C° 0 mm 2 mps 740 mmHg 90%
    23:00 +21°C° 0 mm 2 mps 740 mmHg 93%
    Mostrar más